Regional Weather Roundup
Issued by NWS

Home | Current Version | Previous Version | Text Only | Print | Product List | Glossary On
Versions: 1 2 3 4 5 6 7 8 9 10 11 12 13 14 15 16 17 18 19 20 21 22 23 24 25 26 27 28 29 30 31 32 33 34 35 36 37 38 39 40 41 42 43 44 45 46 47 48 49 50
748
ASUS43 KFSD 280010
RWRSD

WEATHER ROUNDUP FOR SOUTH DAKOTA
NATIONAL WEATHER SERVICE SIOUX FALLS SD
700 PM CDT TUE SEP 27 2016

NOTE: "FAIR" INDICATES FEW OR NO CLOUDS BELOW 12,000 FEET WITH NO
SIGNIFICANT WEATHER AND/OR OBSTRUCTIONS TO VISIBILITY.


SDZ001>005-009-010-012>017-280100-
NORTHWEST AND NORTH CENTRAL SOUTH DAKOTA

CITY           SKY/WX    TMP DP  RH WIND       PRES   REMARKS
BUFFALO          N/A     77  45  32 NW12      29.94R
FAITH            N/A     77  43  29 N8        29.95R
MOBRIDGE       CLEAR     72  42  34 NE9       29.91R
$$

SDZ012>016-024>037-041>051-057-063-072>074-280100-
SOUTHWEST AND SOUTH CENTRAL SOUTH DAKOTA

CITY           SKY/WX    TMP DP  RH WIND       PRES   REMARKS
RAPID CTY ARPT CLEAR     78  42  27 N14       29.99R
PIERRE         CLEAR     74  44  34 NE10      29.90R
CUSTER         CLEAR     69  41  36 SE7       30.15R
ELLSWORTH AFB  CLEAR     80  42  26 N12       30.00R
PHILIP         CLEAR     79  40  24 N7        29.93R
PINE RIDGE     CLEAR     79  41  25 NE8       30.00R
WINNER         FAIR      76  44  32 NE7       29.92R
$$

SDZ004>011-016>023-039-040-280100-
NORTHEAST SOUTH DAKOTA

CITY           SKY/WX    TMP DP  RH WIND       PRES   REMARKS
ABERDEEN       CLEAR     67  35  30 N9        29.91R
WATERTOWN      CLEAR     60  33  36 N9        29.89R
BROOKINGS      CLEAR     62  39  42 NW9       29.87R
SISSETON         N/A     62  29  28 N9        29.88R
$$

SDZ017-020-022-023-036>040-048>070-280100-
SOUTHEAST SOUTH DAKOTA

CITY           SKY/WX    TMP DP  RH WIND       PRES   REMARKS
SIOUX FALLS    PTCLDY    67  45  45 N9        29.86R
HURON          CLEAR     69  42  37 N10       29.88R
CHAMBERLAIN    CLEAR     76  46  34 N5        29.90S
MITCHELL       CLEAR     72  43  35 N7        29.88R
YANKTON        CLEAR     70  48  46 NW8       29.85S
$$

ABBREVIATIONS USED IN REMARKS
   TC - TEMPERATURE IN CELSIUS
  WCI - WIND CHILL INDEX
   HX - HEAT INDEX
  VSB - VISIBILITY





USA.gov is the U.S. government's official web portal to all federal, state and local government web resources and services.